EN

Hourly Weather Bolshie Ovchinenki

Today, 27 October, Tuesday

Time Temperature Precipitation Wind Pressure Humidity
00:00 +6°C° 0 mm 5 mps 747 mmHg 88%
01:00 +6°C° 0 mm 5 mps 747 mmHg 88%
02:00 +6°C° 0 mm 5 mps 747 mmHg 89%
03:00 +6°C° 0 mm 5 mps 747 mmHg 89%
04:00 +5°C° 0 mm 5 mps 747 mmHg 89%
05:00 +5°C° 0 mm 5 mps 747 mmHg 89%
06:00 +5°C° 0 mm 5 mps 747 mmHg 89%
07:00 +5°C° 0 mm 5 mps 747 mmHg 89%
08:00 +5°C° 0 mm 5 mps 747 mmHg 88%
09:00 +7°C° 0 mm 6 mps 747 mmHg 84%
10:00 +8°C° 0 mm 6 mps 747 mmHg 81%
11:00 +9°C° 0 mm 6 mps 747 mmHg 77%
12:00 +9°C° 0 mm 6 mps 747 mmHg 76%
13:00 +10°C° 0 mm 6 mps 747 mmHg 75%
14:00 +10°C° 0 mm 6 mps 747 mmHg 73%
15:00 +10°C° 0 mm 5 mps 747 mmHg 77%
16:00 +9°C° 0 mm 5 mps 747 mmHg 81%
17:00 +8°C° 0 mm 4 mps 747 mmHg 84%
18:00 +8°C° 0 mm 4 mps 747 mmHg 84%
19:00 +8°C° 0 mm 5 mps 747 mmHg 85%
20:00 +8°C° 0 mm 5 mps 747 mmHg 85%
21:00 +7°C° 0 mm 5 mps 747 mmHg 86%
22:00 +7°C° 0 mm 4 mps 747 mmHg 87%
23:00 +7°C° 0 mm 4 mps 747 mmHg 89%

Tomorrow, 28 October, Wednesday

Time Temperature Precipitation Wind Pressure Humidity
00:00 +7°C° 0 mm 4 mps 747 mmHg 89%
01:00 +6°C° 0 mm 4 mps 747 mmHg 90%
02:00 +6°C° 0 mm 4 mps 747 mmHg 91%
03:00 +6°C° 0 mm 4 mps 747 mmHg 92%
04:00 +6°C° 0 mm 4 mps 747 mmHg 92%
05:00 +6°C° 0 mm 4 mps 746 mmHg 93%
06:00 +6°C° 0 mm 4 mps 747 mmHg 93%
07:00 +6°C° 0 mm 4 mps 747 mmHg 93%
08:00 +6°C° 0 mm 4 mps 747 mmHg 93%
09:00 +7°C° 0 mm 4 mps 747 mmHg 90%
10:00 +8°C° 0 mm 4 mps 747 mmHg 87%
11:00 +11°C° 0 mm 4 mps 747 mmHg 84%
12:00 +11°C° 0 mm 4 mps 747 mmHg 82%
13:00 +12°C° 0 mm 4 mps 747 mmHg 81%
14:00 +12°C° 0 mm 4 mps 747 mmHg 80%
15:00 +11°C° 0 mm 4 mps 747 mmHg 83%
16:00 +11°C° 0 mm 3 mps 747 mmHg 87%
17:00 +10°C° 0 mm 3 mps 747 mmHg 91%
18:00 +8°C° 0 mm 4 mps 747 mmHg 91%
19:00 +8°C° 0 mm 4 mps 747 mmHg 91%
20:00 +8°C° 0 mm 4 mps 748 mmHg 91%
21:00 +8°C° 0 mm 4 mps 747 mmHg 89%
22:00 +7°C° 0 mm 4 mps 747 mmHg 87%
23:00 +7°C° 0 mm 4 mps 747 mmHg 85%

Day after tomorrow, 29 October, Thursday

Time Temperature Precipitation Wind Pressure Humidity
00:00 +6°C° 0 mm 4 mps 747 mmHg 85%
01:00 +6°C° 0 mm 4 mps 747 mmHg 85%
02:00 +7°C° 0 mm 3 mps 747 mmHg 85%
03:00 +5°C° 0 mm 3 mps 747 mmHg 86%
04:00 +5°C° 0 mm 3 mps 746 mmHg 86%
05:00 +5°C° 0 mm 3 mps 746 mmHg 87%
06:00 +5°C° 0 mm 3 mps 746 mmHg 87%
07:00 +5°C° 0 mm 4 mps 746 mmHg 87%
08:00 +5°C° 0 mm 4 mps 746 mmHg 88%
09:00 +6°C° 0 mm 4 mps 746 mmHg 84%
10:00 +7°C° 0 mm 4 mps 746 mmHg 80%
11:00 +10°C° 0 mm 4 mps 746 mmHg 77%
12:00 +10°C° 0 mm 4 mps 745 mmHg 76%
13:00 +10°C° 0 mm 4 mps 745 mmHg 75%
14:00 +11°C° 0 mm 4 mps 745 mmHg 74%
15:00 +10°C° 0 mm 3 mps 744 mmHg 79%
16:00 +9°C° 0 mm 3 mps 744 mmHg 83%
17:00 +8°C° 0 mm 3 mps 744 mmHg 88%
18:00 +8°C° 0 mm 3 mps 744 mmHg 88%
19:00 +8°C° 0 mm 3 mps 744 mmHg 88%
20:00 +8°C° 0 mm 3 mps 744 mmHg 87%
21:00 +8°C° 0 mm 2 mps 744 mmHg 88%
22:00 +8°C° 0 mm 2 mps 744 mmHg 89%
23:00 +8°C° 0 mm 2 mps 743 mmHg 89%

30 October, Friday

Time Temperature Precipitation Wind Pressure Humidity
00:00 +8°C° 0 mm 2 mps 743 mmHg 91%
01:00 +9°C° 0 mm 1 mps 743 mmHg 92%
02:00 +9°C° 0 mm 1 mps 743 mmHg 93%
03:00 +9°C° 0 mm 1 mps 743 mmHg 94%
04:00 +9°C° 0 mm 1 mps 743 mmHg 95%
05:00 +8°C° 0 mm 1 mps 743 mmHg 95%
06:00 +8°C° 0 mm 1 mps 743 mmHg 95%
07:00 +8°C° 0 mm 1 mps 743 mmHg 95%
08:00 +8°C° 0 mm 1 mps 743 mmHg 95%
09:00 +9°C° 0 mm 1 mps 743 mmHg 90%
10:00 +10°C° 0 mm 1 mps 743 mmHg 85%
11:00 +11°C° 0 mm 1 mps 744 mmHg 81%
12:00 +11°C° 0 mm 1 mps 744 mmHg 79%
13:00 +10°C° 0 mm 2 mps 744 mmHg 78%
14:00 +12°C° 0 mm 2 mps 744 mmHg 77%
15:00 +11°C° 0 mm 1 mps 744 mmHg 80%
16:00 +10°C° 0 mm 1 mps 744 mmHg 83%
17:00 +10°C° 0 mm 1 mps 744 mmHg 86%
18:00 +10°C° 0.1 mm 1 mps 744 mmHg 87%
19:00 +9°C° 0.1 mm 2 mps 744 mmHg 89%
20:00 +8°C° 0.1 mm 2 mps 744 mmHg 90%
21:00 +8°C° 0.2 mm 2 mps 744 mmHg 91%
22:00 +8°C° 0.2 mm 2 mps 745 mmHg 91%
23:00 +8°C° 0.2 mm 3 mps 745 mmHg 92%

31 October, Saturday

Time Temperature Precipitation Wind Pressure Humidity
00:00 +8°C° 0.3 mm 3 mps 745 mmHg 92%
01:00 +8°C° 0.3 mm 3 mps 745 mmHg 92%
02:00 +8°C° 0.3 mm 3 mps 745 mmHg 93%
03:00 +8°C° 0.2 mm 3 mps 745 mmHg 93%
04:00 +8°C° 0.2 mm 3 mps 746 mmHg 93%
05:00 +8°C° 0.2 mm 3 mps 746 mmHg 93%
06:00 +7°C° 0 mm 3 mps 746 mmHg 93%
07:00 +7°C° 0 mm 3 mps 747 mmHg 94%
08:00 +7°C° 0 mm 3 mps 747 mmHg 94%
09:00 +8°C° 0 mm 3 mps 748 mmHg 89%
10:00 +9°C° 0 mm 3 mps 748 mmHg 85%
11:00 +10°C° 0 mm 4 mps 749 mmHg 81%
12:00 +10°C° 0 mm 4 mps 749 mmHg 79%
13:00 +10°C° 0 mm 4 mps 749 mmHg 77%
14:00 +10°C° 0 mm 4 mps 750 mmHg 75%
15:00 +10°C° 0 mm 4 mps 750 mmHg 78%
16:00 +8°C° 0 mm 4 mps 750 mmHg 82%
17:00 +8°C° 0 mm 3 mps 751 mmHg 85%
18:00 +8°C° 0 mm 3 mps 751 mmHg 87%
19:00 +7°C° 0 mm 3 mps 752 mmHg 89%
20:00 +7°C° 0 mm 3 mps 752 mmHg 91%
21:00 +7°C° 0 mm 3 mps 752 mmHg 92%
22:00 +5°C° 0 mm 3 mps 752 mmHg 94%
23:00 +5°C° 0 mm 3 mps 753 mmHg 95%

1 November, Sunday

Time Temperature Precipitation Wind Pressure Humidity
00:00 +4°C° 0 mm 3 mps 753 mmHg 95%
01:00 +4°C° 0 mm 3 mps 753 mmHg 95%
02:00 +4°C° 0 mm 3 mps 753 mmHg 94%
03:00 +4°C° 0 mm 3 mps 753 mmHg 95%
04:00 +3°C° 0 mm 3 mps 753 mmHg 95%
05:00 +3°C° 0 mm 3 mps 753 mmHg 95%
06:00 +3°C° 0 mm 3 mps 753 mmHg 94%
07:00 +3°C° 0 mm 3 mps 754 mmHg 94%
08:00 +3°C° 0 mm 4 mps 754 mmHg 94%
09:00 +4°C° 0 mm 4 mps 754 mmHg 88%
10:00 +5°C° 0 mm 4 mps 754 mmHg 82%
11:00 +7°C° 0 mm 4 mps 754 mmHg 77%
12:00 +8°C° 0 mm 3 mps 754 mmHg 74%
13:00 +9°C° 0 mm 3 mps 754 mmHg 72%
14:00 +9°C° 0 mm 3 mps 754 mmHg 69%
15:00 +8°C° 0 mm 3 mps 754 mmHg 75%
16:00 +7°C° 0 mm 3 mps 754 mmHg 80%
17:00 +5°C° 0 mm 3 mps 754 mmHg 85%
18:00 +4°C° 0 mm 3 mps 754 mmHg 86%
19:00 +4°C° 0 mm 3 mps 754 mmHg 88%
20:00 +3°C° 0 mm 3 mps 755 mmHg 90%
21:00 +3°C° 0 mm 3 mps 755 mmHg 90%
22:00 +3°C° 0 mm 3 mps 755 mmHg 90%
23:00 +2°C° 0 mm 3 mps 755 mmHg 90%
Show more